Albany, NY

11:01 AM EST on December 06, 2019 (GMT -0500)
Albany International

Weather History for KALB - July, 2019

Change the Weather History Date:

Wednesday, July 24, 2019

  Actual Average Record
Temperature  
Mean Temperature 71 °F 72 °F  
Max Temperature 82 °F 83 °F 96 °F (1941)
Min Temperature 63 °F 62 °F 45 °F (1985)
Degree Days  
Heating Degree Days 0 0  
Month to date heating degree days 0  
Since 1 June heating degree days 52  
Since 1 July heating degree days 0  
Cooling Degree Days 6 7  
Month to date cooling degree days 165  
Year to date cooling degree days 313  
Since 1 June cooling degree days 283  
Growing Degree Days 21 (Base 50)    
Moisture  
Dew Point 58 °F    
Average Humidity 62    
Maximum Humidity 90    
Minimum Humidity 31    
Precipitation  
Precipitation 0.00 in 0.13 in 1.24 in (1908)
Month to date precipitation 3.19  
Year to date precipitation 21.76  
Sea Level Pressure  
Sea Level Pressure 29.97 in    
Wind  
Wind Speed 5 mph (North)    
Max Wind Speed 9 mph    
Max Gust Speed -    
Visibility 10 miles    
Events      
T = Trace of Precipitation, MM = Missing Value Source: NWS Daily Summary

Daily Weather History Graph

Daily Weather History Graph

Search for Another Location

Airport or City:

Astronomy

Jul. 24, 2019 Rise Set
Actual Time 5:38 AM EDT 8:24 PM EDT
Civil Twilight 5:05 AM EDT 8:57 PM EDT
Nautical Twilight 4:23 AM EDT 9:38 PM EDT
Astronomical Twilight 3:35 AM EDT 10:26 PM EDT
Moon 12:02 AM EDT (7/24) 12:56 PM EDT (7/24)
Length of Visible Light 15h 51m
Length of Day
14h 45m
Waning Gibbous, 54% of the Moon is Illuminated
Jul 24
Waning Gibbous
Jul 24
Last Quarter
Jul 31
New
Aug 7
First Quarter
Aug 15
Full

Hourly Weather History & Observations

Time (EDT) Temp. Dew Point Humidity Pressure Visibility Wind Dir Wind Speed Gust Speed Precip Events Conditions
12:51 AM 66.0 °F 62.1 °F 87% 29.91 in 10.0 mi North 4.6 mph - N/A   Overcast
1:51 AM 66.0 °F 62.1 °F 87% 29.92 in 10.0 mi North 3.5 mph - N/A   Overcast
2:51 AM 64.9 °F 61.0 °F 87% 29.91 in 10.0 mi NNW 3.5 mph - N/A   Overcast
3:51 AM 64.9 °F 61.0 °F 87% 29.91 in 10.0 mi NNW 5.8 mph - N/A   Overcast
4:51 AM 63.0 °F 60.1 °F 90% 29.93 in 10.0 mi NNW 3.5 mph - N/A   Mostly Cloudy
5:51 AM 63.0 °F 57.0 °F 81% 29.95 in 10.0 mi NNW 4.6 mph - N/A   Mostly Cloudy
6:51 AM 64.9 °F 57.0 °F 75% 29.97 in 10.0 mi North 4.6 mph - N/A   Mostly Cloudy
7:51 AM 66.9 °F 57.9 °F 73% 29.99 in 10.0 mi NNW 8.1 mph - N/A   Scattered Clouds
8:51 AM 70.0 °F 59.0 °F 68% 30.00 in 10.0 mi North 8.1 mph - N/A   Scattered Clouds
9:51 AM 73.0 °F 59.0 °F 61% 30.00 in 10.0 mi NE 9.2 mph - N/A   Scattered Clouds
10:51 AM 75.0 °F 57.0 °F 53% 30.00 in 10.0 mi North 8.1 mph - N/A   Scattered Clouds
11:51 AM 77.0 °F 57.0 °F 50% 29.99 in 10.0 mi Variable 5.8 mph - N/A   Scattered Clouds
12:51 PM 78.1 °F 55.9 °F 46% 29.98 in 10.0 mi Variable 3.5 mph - N/A   Scattered Clouds
1:51 PM 78.1 °F 55.0 °F 45% 29.97 in 10.0 mi Variable 3.5 mph - N/A   Scattered Clouds
2:51 PM 79.0 °F 55.0 °F 44% 29.96 in 10.0 mi NE 6.9 mph - N/A   Scattered Clouds
3:51 PM 79.0 °F 55.0 °F 44% 29.96 in 10.0 mi NNE 5.8 mph - N/A   Scattered Clouds
4:51 PM 79.0 °F 54.0 °F 42% 29.96 in 10.0 mi North 4.6 mph - N/A   Scattered Clouds
5:51 PM 79.0 °F 54.0 °F 42% 29.96 in 10.0 mi Calm Calm - N/A   Scattered Clouds
6:51 PM 79.0 °F 55.0 °F 44% 29.97 in 10.0 mi Calm Calm - N/A   Partly Cloudy
7:51 PM 78.1 °F 55.0 °F 45% 29.98 in 10.0 mi Calm Calm - N/A   Partly Cloudy
8:51 PM 72.0 °F 57.9 °F 61% 29.99 in 10.0 mi WSW 3.5 mph - N/A   Partly Cloudy
9:51 PM 66.9 °F 59.0 °F 76% 30.01 in 10.0 mi Calm Calm - N/A   Partly Cloudy
10:51 PM 69.1 °F 57.0 °F 65% 30.02 in 10.0 mi NW 3.5 mph - N/A   Partly Cloudy
11:51 PM 66.0 °F 57.9 °F 75% 30.04 in 10.0 mi Calm Calm - N/A   Scattered Clouds